Home   Weather   Assisi   Past weeks
Flag for Italy

Past Weather in Assisi, Italy — Yesterday and Last 2 Weeks

Now
79 °F

Passing clouds.


Feels Like: 80 °F
Forecast: 77 / 52 °F
Wind: 3 mph from West

Location: Perugia Airport

Current Time: Oct 22, 2019 at 5:00:39 pm

Latest Report: Oct 22, 2019 at 3:50 pm


Visibility: N/A

Pressure: 30.12 "Hg

Humidity: 48%

Dew Point: 57 °F

Location of AssisiLocation

Past Weather in Assisi — Graph

°F

Assisi Temperature Yesterday

Maximum temperature yesterday: 81 °F (at 3:50 pm)
Minimum temperature yesterday: 54 °F (at 7:50 am)
Average temperature yesterday: 65 °F

High & Low Weather Summary for the Past Weeks

 TemperatureHumidityPressure
High81 °F (Oct 21, 3:50 pm)100% (Oct 9, 7:50 am)30.27 "Hg (Oct 9, 7:50 am)
Low45 °F (Oct 9, 7:50 am)38% (Oct 8, 1:50 pm)29.80 "Hg (Oct 7, 2:50 pm)
Average61 °F75%30.11 "Hg
* Reported Oct 7 2:50 pm — Oct 22 2:50 pm, Assisi. Weather by CustomWeather, © 2019

Note: Actual official high and low records may vary slightly from our data, if they occured in-between our weather recording intervals... More about our weather records

Advertising

Assisi Weather History for the Previous 24 Hours

Scroll right to see more
 ConditionsComfort  
Time TempWeatherWind HumidityBarometerVisibility
2:50 pm
Tue, Oct 22
77 °FSunny.2 mph47%30.12 "Hg10 mi
1:50 pm75 °FSunny.1 mph57%30.15 "Hg10 mi
12:50 pm68 °FSunny.2 mph69%30.18 "Hg10 mi
11:50 am66 °FSunny.1 mph73%30.21 "Hg10 mi
10:50 am63 °FSunny.1 mph83%30.21 "Hg10 mi
9:50 am57 °FSunny.2 mph88%30.21 "Hg10 mi
8:50 am54 °FSunny.2 mph94%30.18 "Hg10 mi
7:50 am54 °FSunny.3 mph94%30.18 "Hg10 mi
6:50 am54 °FCool.6 mph94%30.18 "HgN/A
5:50 am55 °FCool.5 mph94%30.18 "HgN/A
4:50 am55 °FCool.6 mph94%30.18 "HgN/A
3:50 am55 °FCool.6 mph94%30.18 "HgN/A
2:50 am57 °FCool.7 mph94%30.21 "HgN/A
12:50 am59 °FCool.7 mph88%30.21 "HgN/A
10:50 pm
Mon, Oct 21
63 °FClear.2 mph83%30.21 "Hg10 mi
9:50 pm63 °FClear.8 mph83%30.18 "Hg10 mi
8:50 pm64 °FClear.7 mph73%30.18 "Hg10 mi
7:50 pm66 °FClear.2 mph73%30.18 "Hg10 mi
6:50 pm73 °FClear.3 mph57%30.18 "Hg10 mi
5:50 pm77 °FPassing clouds.3 mph51%30.15 "HgN/A
Weather by CustomWeather, © 2019

See weather overview